Sault Sainte Marie, MI

12:31 PM EDT on August 31, 2016 (GMT -0400)
Sault Ste Marie Municipal / Sanderson Field

Weather History for KANJ - May, 2013

Change the Weather History Date:

Tuesday, May 14, 2013

  Actual Average Record
Temperature  
Mean Temperature 47 °F 51 °F  
Max Temperature 55 °F 62 °F 82 °F (1900)
Min Temperature 39 °F 41 °F 24 °F (1988)
Degree Days  
Heating Degree Days 18 14  
Month to date heating degree days 191 220  
Since 1 July heating degree days 8039 8289  
Cooling Degree Days 0 0  
Month to date cooling degree days 0 0  
Year to date cooling degree days 0 0  
Moisture  
Dew Point 34 °F    
Average Humidity 65    
Maximum Humidity 79    
Minimum Humidity 50    
Precipitation  
Precipitation T in 0.08 in 1.40 in (2007)
Month to date precipitation 0.97 1.09  
Year to date precipitation 12.78 8.96  
Sea Level Pressure  
Sea Level Pressure 29.87 in    
Wind  
Wind Speed 10 mph (ESE)    
Max Wind Speed 22 mph    
Max Gust Speed 32 mph    
Visibility 10 miles    
Events Rain    
T = Trace of Precipitation, MM = Missing Value Source: NWS Daily Summary

Daily Weather History Graph

Daily Weather History Graph

Search for Another Location

Airport or City:

Trip Planner

Search our weather history database for the weather conditions in past years. The results will help you decide how hot, cold, wet, or windy it might be!

Date:

Astronomy

May. 14, 2013 Rise Set
Actual Time 6:04 AM EDT 9:03 PM EDT
Civil Twilight 5:29 AM EDT 9:39 PM EDT
Nautical Twilight 4:43 AM EDT 10:24 PM EDT
Astronomical Twilight 3:49 AM EDT 11:20 PM EDT
Moon 9:44 AM EDT (5/14) 12:11 AM EDT (5/14)
Length of Visible Light 16h 09m
Length of Day
14h 58m
Waxing Crescent, 19% of the Moon is Illuminated
May 14
Waxing Crescent
May 18
First Quarter
May 25
Full
May 31
Last Quarter
Jun 8
New

Hourly Weather History & Observations

Time (EDT) Temp. Windchill Dew Point Humidity Pressure Visibility Wind Dir Wind Speed Gust Speed Precip Events Conditions
12:55 AM 39.9 °F 37.8 °F 26.1 °F 58% 30.01 in 10.0 mi South 3.5 mph - N/A   Overcast
1:55 AM 39.0 °F 35.7 °F 27.0 °F 62% 30.00 in 10.0 mi ESE 4.6 mph - N/A   Overcast
2:55 AM 39.9 °F 37.8 °F 26.1 °F 58% 29.99 in 10.0 mi ESE 3.5 mph - N/A   Overcast
3:55 AM 39.9 °F 36.7 °F 28.0 °F 63% 29.99 in 10.0 mi East 4.6 mph - N/A   Overcast
4:55 AM 39.0 °F 35.7 °F 30.9 °F 73% 29.98 in 10.0 mi ESE 4.6 mph - 0.00 in Rain Light Rain
5:55 AM 39.0 °F 35.7 °F 32.0 °F 76% 29.95 in 10.0 mi ESE 4.6 mph - 0.00 in Rain Light Rain
6:55 AM 39.0 °F 33.4 °F 33.1 °F 79% 29.95 in 5.0 mi ESE 8.1 mph - 0.00 in Rain Light Rain
7:55 AM 39.0 °F 34.8 °F 35.1 °F 86% 29.92 in 10.0 mi ESE 5.8 mph - 0.00 in   Overcast
8:55 AM 39.9 °F 33.4 °F 34.0 °F 79% 29.92 in 10.0 mi ESE 10.4 mph - N/A   Overcast
9:55 AM 42.1 °F 35.7 °F 35.1 °F 76% 29.92 in 10.0 mi ESE 11.5 mph 19.6 mph N/A   Overcast
10:55 AM 46.0 °F 40.6 °F 36.0 °F 68% 29.88 in 10.0 mi ESE 11.5 mph 23.0 mph N/A   Overcast
11:55 AM 50.0 °F - 36.0 °F 59% 29.90 in 10.0 mi ESE 15.0 mph 28.8 mph N/A   Partly Cloudy
12:55 PM 51.1 °F - 36.0 °F 56% 29.88 in 10.0 mi SE 16.1 mph 24.2 mph N/A   Clear
1:55 PM 52.0 °F - 35.1 °F 53% 29.88 in 10.0 mi SE 12.7 mph 26.5 mph N/A   Clear
2:55 PM 54.0 °F - 37.0 °F 53% 29.87 in 10.0 mi ESE 9.2 mph 18.4 mph N/A   Clear
3:55 PM 53.1 °F - 35.1 °F 50% 29.86 in 10.0 mi SE 12.7 mph 21.9 mph N/A   Clear
4:55 PM 53.1 °F - 35.1 °F 50% 29.83 in 10.0 mi SE 15.0 mph 23.0 mph N/A   Clear
5:55 PM 51.1 °F - 36.0 °F 56% 29.81 in 10.0 mi ESE 12.7 mph 20.7 mph N/A   Clear
6:55 PM 48.9 °F - 36.0 °F 61% 29.80 in 10.0 mi ESE 13.8 mph 24.2 mph N/A   Clear
7:55 PM 46.9 °F - 36.0 °F 66% 29.78 in 10.0 mi ESE 10.4 mph 26.5 mph N/A   Mostly Cloudy
8:55 PM 46.0 °F 40.2 °F 36.0 °F 68% 29.75 in 10.0 mi ESE 12.7 mph 25.3 mph N/A   Partly Cloudy
9:55 PM 45.0 °F 38.5 °F 36.0 °F 71% 29.73 in 10.0 mi ESE 13.8 mph 23.0 mph N/A   Partly Cloudy
10:55 PM 44.1 °F 38.6 °F 36.0 °F 73% 29.72 in 10.0 mi ESE 10.4 mph 20.7 mph N/A   Scattered Clouds
11:55 PM 44.1 °F 39.0 °F 37.0 °F 76% 29.69 in 10.0 mi ESE 9.2 mph 18.4 mph N/A   Overcast